EW3730 Weather Reports


time (UTC)temp
F
wind
direction
speed
knots
gust
knots
rain 1hr
in
rain 24hr
in
rain mn
in
humidity
%
barometer
mb
20260506232556 54 297 0.0 2.6 0.00 0.39 0.13 40 1014.1
20260506232056 54 297 0.9 2.6 0.00 0.40 0.13 39 1014.1
20260506231556 54 142 0.9 2.6 0.00 0.40 0.13 40 1014.3
20260506231056 53 22 0.0 2.6 0.00 0.40 0.13 39 1014.2
20260506230556 54 23 0.0 1.7 0.00 0.41 0.13 39 1014.3
20260506230327 54 23 0.9 2.6 0.00 0.41 0.13 38 1014.3
20260506225554 54 44 0.9 2.6 0.00 0.42 0.13 38 1014.3
20260506225054 54 309 0.0 2.6 0.00 0.43 0.13 39 1014.4
20260506224554 53 311 0.9 3.5 0.00 0.43 0.13 39 1014.4
20260506224053 53 333 0.9 3.5 0.00 0.44 0.13 38 1014.5
20260506223548 53 332 0.9 5.2 0.00 0.45 0.13 40 1014.3
20260506223042 53 257 0.9 5.2 0.00 0.45 0.13 39 1014.3
20260506222536 53 323 2.6 6.1 0.00 0.45 0.13 38 1014.4
20260506222032 53 296 2.6 6.1 0.00 0.45 0.13 39 1014.3
20260506221532 53 312 2.6 5.2 0.00 0.45 0.13 37 1014.4
20260506221032 53 329 3.5 7.0 0.00 0.46 0.13 38 1014.3
20260506220802 54 344 3.5 7.0 0.00 0.46 0.13 36 1014.3
20260506220030 54 298 2.6 7.8 0.00 0.46 0.13 38 1014.2
20260506215530 54 302 2.6 7.8 0.00 0.47 0.13 38 1014.3
20260506215030 54 336 1.7 6.1 0.00 0.48 0.13 37 1014.2
20260506214528 54 263 2.6 7.0 0.00 0.49 0.13 38 1014.2
20260506214025 54 323 2.6 9.6 0.00 0.49 0.13 38 1014.1
20260506213526 54 290 2.6 9.6 0.00 0.50 0.13 39 1014.1
20260506213026 54 316 2.6 7.0 0.00 0.50 0.13 37 1014.2
20260506212526 54 306 2.6 8.7 0.00 0.50 0.13 38 1014.0
20260506212026 54 275 2.6 8.7 0.00 0.50 0.13 38 1013.9
20260506211757 55 281 2.6 6.1 0.00 0.50 0.13 39 1013.7
20260506211029 55 239 1.7 7.8 0.00 0.50 0.13 39 1013.7
20260506210528 55 271 1.7 7.8 0.00 0.50 0.13 40 1013.8
20260506210028 55 275 0.9 3.5 0.00 0.51 0.13 40 1013.7
20260506205522 55 254 1.7 4.3 0.00 0.52 0.13 41 1013.8
20260506205020 55 287 1.7 5.2 0.00 0.53 0.13 42 1013.8
20260506204520 55 277 1.7 5.2 0.00 0.54 0.13 41 1013.7
20260506204019 55 282 1.7 5.2 0.00 0.55 0.13 41 1013.7
20260506203519 55 236 1.7 7.0 0.00 0.57 0.13 40 1013.7
20260506203250 54 260 1.7 7.0 0.00 0.58 0.13 39 1013.7
20260506202520 54 297 1.7 5.2 0.00 0.59 0.13 41 1013.8
20260506202020 54 332 2.6 7.0 0.00 0.61 0.13 41 1013.8
20260506201523 55 300 1.7 7.0 0.00 0.64 0.13 39 1013.9
20260506201519 54 326 1.7 7.0 0.00 0.62 0.13 39 1013.9
20260506200752 55 268 1.7 7.8 0.00 0.66 0.13 39 1013.9
20260506200020 54 242 0.9 7.8 0.00 0.68 0.13 38 1013.9
20260506195519 54 262 0.9 3.5 0.00 0.69 0.13 40 1014.0
20260506195020 54 239 0.9 4.3 0.00 0.71 0.13 39 1014.1
20260506194520 54 296 1.7 4.3 0.00 0.72 0.13 40 1013.9
20260506194024 54 314 2.6 7.0 0.00 0.74 0.13 39 1013.8
20260506194020 54 266 1.7 4.3 0.00 0.73 0.13 39 1013.9
20260506193020 54 308 1.7 7.0 0.00 0.74 0.13 39 1013.8
20260506192520 54 275 1.7 5.2 0.00 0.75 0.13 41 1013.9
20260506192017 54 231 1.7 5.2 0.00 0.75 0.13 38 1013.8
20260506191518 54 293 1.7 6.1 0.00 0.76 0.13 38 1013.7
20260506191249 54 255 1.7 6.1 0.00 0.77 0.13 38 1013.8
20260506190518 54 300 1.7 3.5 0.00 0.79 0.13 40 1013.9
20260506190013 53 340 2.6 7.0 0.00 0.80 0.13 39 1013.9
20260506185514 53 299 2.6 7.8 0.00 0.81 0.13 39 1013.9
20260506185014 53 304 2.6 7.8 0.00 0.82 0.13 37 1013.9
20260506184745 53 320 2.6 8.7 0.00 0.83 0.13 38 1013.9
20260506184244 54 267 3.5 8.7 0.00 0.84 0.13 36 1014.1
20260506183514 54 302 2.6 8.7 0.00 0.85 0.13 38 1014.1
20260506183014 54 306 3.5 8.7 0.00 0.86 0.13 40 1014.1
20260506182514 54 321 3.5 7.0 0.00 0.86 0.13 39 1013.9
20260506182013 54 290 3.5 7.0 0.00 0.87 0.13 39 1014.0
20260506181509 55 348 2.6 5.2 0.00 0.87 0.13 37 1013.8
20260506181010 54 346 2.6 6.1 0.00 0.88 0.13 38 1013.6
20260506180510 54 325 2.6 7.8 0.00 0.88 0.13 37 1013.6
20260506180010 54 317 2.6 8.7 0.00 0.88 0.13 39 1013.9
20260506175510 54 307 3.5 9.6 0.00 0.88 0.13 38 1013.8
20260506175240 55 305 2.6 9.6 0.00 0.88 0.13 38 1013.9
20260506174510 55 15 2.6 7.8 0.00 0.89 0.13 37 1013.7
20260506174009 55 290 2.6 7.8 0.00 0.89 0.13 39 1013.8
20260506173510 55 298 2.6 8.7 0.00 0.89 0.13 36 1013.7
20260506173003 55 321 3.5 9.6 0.00 0.89 0.13 39 1013.8
20260506172449 55 348 4.3 10.4 0.00 0.90 0.13 35 1013.7
20260506172221 55 298 4.3 10.4 0.00 0.91 0.13 38 1013.6
20260506171721 55 336 3.5 9.6 0.00 0.92 0.13 37 1013.8
20260506170950 55 350 2.6 8.7 0.00 0.93 0.13 41 1013.7
20260506170450 55 322 2.6 8.7 0.00 0.94 0.13 38 1013.8
20260506170220 54 342 2.6 7.8 0.00 0.94 0.13 39 1013.8
20260506165447 54 337 3.5 8.7 0.00 0.95 0.13 38 1013.9
20260506165219 54 318 3.5 8.7 0.00 0.95 0.13 37 1014.0
20260506164446 55 298 3.5 9.6 0.00 0.96 0.13 39 1014.0
20260506163945 55 274 3.5 9.6 0.00 0.96 0.13 37 1014.1
20260506163445 55 296 3.5 10.4 0.00 0.97 0.13 40 1014.2
20260506162941 55 282 3.5 10.4 0.00 0.97 0.13 37 1013.9
20260506162441 55 287 2.6 7.8 0.00 0.98 0.13 39 1013.7
20260506161940 55 42 2.6 7.0 0.00 0.98 0.13 39 1013.6
20260506161439 55 336 1.7 6.1 0.00 0.99 0.13 42 1013.8
20260506160933 55 333 1.7 8.7 0.00 0.99 0.13 43 1013.9
20260506160427 54 342 2.6 8.7 0.00 1.00 0.13 41 1014.1
20260506155921 54 302 3.5 9.6 0.00 1.01 0.13 43 1013.9
20260506155419 53 338 2.6 9.6 0.00 1.02 0.13 39 1013.9
20260506154919 53 335 1.7 5.2 0.00 1.02 0.13 45 1014.0
20260506154419 53 342 1.7 7.8 0.00 1.02 0.13 45 1013.8
20260506153919 53 336 1.7 7.8 0.00 1.02 0.13 44 1013.8
20260506153651 53 355 1.7 6.1 0.00 1.02 0.13 43 1013.7
20260506152922 53 301 2.6 7.0 0.00 1.02 0.13 47 1013.7
20260506152418 53 335 2.6 7.0 0.00 1.02 0.13 46 1013.7
20260506152147 53 64 2.6 7.0 0.00 1.02 0.13 49 1013.7
20260506151415 53 350 3.5 8.7 0.00 1.02 0.13 48 1013.6
20260506150915 53 340 2.6 8.7 0.00 1.02 0.13 47 1013.3
20260506150413 52 311 2.6 7.8 0.00 1.02 0.13 49 1013.3
20260506145913 52 338 2.6 7.8 0.00 1.02 0.13 48 1013.3
20260506145646 52 340 3.5 7.8 0.00 1.02 0.13 48 1013.2
20260506144914 51 286 3.5 7.8 0.00 1.02 0.13 50 1013.3
20260506144411 51 318 2.6 7.0 0.00 1.02 0.13 50 1013.2
20260506144143 51 273 1.7 7.0 0.00 1.02 0.13 53 1013.0
20260506143411 51 355 1.7 7.0 0.00 1.02 0.13 51 1013.0
20260506142905 51 338 1.7 6.1 0.00 1.02 0.13 50 1013.1
20260506142359 51 321 2.6 6.1 0.00 1.02 0.13 54 1013.2
20260506141852 51 347 2.6 6.1 0.00 1.02 0.13 51 1013.2
20260506141346 50 339 2.6 6.1 0.00 1.02 0.13 53 1013.0
20260506140840 50 300 1.7 7.0 0.00 1.02 0.13 55 1013.0
20260506140334 50 324 2.6 7.0 0.00 1.02 0.13 55 1012.7
20260506135828 49 312 3.5 8.7 0.00 1.02 0.13 55 1012.6
20260506135322 49 313 4.3 8.7 0.00 1.02 0.13 55 1012.6
20260506134817 49 311 3.5 8.7 0.00 1.02 0.13 55 1012.5
20260506134311 49 344 2.6 7.8 0.00 1.02 0.13 57 1012.6
20260506133805 48 318 2.6 7.0 0.00 1.02 0.13 58 1012.6
20260506133258 48 327 2.6 7.0 0.00 1.02 0.13 58 1012.6
20260506132752 47 305 2.6 7.0 0.00 1.02 0.13 59 1012.5
20260506132247 47 333 2.6 5.2 0.00 1.02 0.13 60 1012.6
20260506131741 46 336 1.7 3.5 0.00 1.02 0.13 61 1012.6
20260506131235 46 306 1.7 4.3 0.00 1.02 0.13 62 1012.6
20260506130728 46 306 1.7 4.3 0.00 1.02 0.13 63 1012.6
20260506130223 46 260 1.7 7.0 0.00 1.02 0.13 64 1012.5
20260506125948 46 294 1.7 7.0 0.00 1.02 0.13 64 1012.3
20260506125210 46 309 1.7 4.3 0.00 1.02 0.13 67 1012.2
20260506124704 45 308 1.7 5.2 0.00 1.02 0.13 67 1012.3
20260506124159 45 311 2.6 7.8 0.00 1.02 0.13 67 1012.2
20260506123652 44 313 1.7 7.8 0.00 1.02 0.13 68 1012.3
20260506123417 45 311 0.9 1.7 0.00 1.02 0.13 73 1012.1
20260506122641 44 316 0.0 1.7 0.00 1.02 0.13 73 1012.0
20260506122135 44 324 0.9 2.6 0.00 1.02 0.13 74 1011.8
20260506121901 44 324 1.7 3.5 0.00 1.02 0.13 73 1011.8
20260506121354 44 324 2.6 6.1 0.00 1.02 0.13 74 1011.8
20260506120616 43 306 2.6 6.1 0.00 1.02 0.13 74 1011.8
20260506120341 44 304 1.7 5.2 0.00 1.02 0.13 74 1011.8
20260506115605 44 326 1.7 6.1 0.00 1.02 0.13 74 1011.9
20260506115059 43 327 2.6 6.1 0.00 1.02 0.13 74 1011.8
20260506114552 43 308 1.7 4.3 0.00 1.02 0.13 74 1011.6
20260506114046 43 304 0.0 2.6 0.00 1.02 0.13 74 1011.4
20260506113540 43 299 0.9 3.5 0.00 1.02 0.13 74 1011.3
20260506113034 43 284 0.9 3.5 0.00 1.02 0.13 74 1011.3
20260506112529 43 313 0.0 2.6 0.00 1.02 0.13 74 1011.1
20260506112023 43 314 0.9 2.6 0.00 1.02 0.13 74 1010.9
20260506111517 43 295 0.9 2.6 0.00 1.02 0.13 74 1010.9
20260506111241 43 302 0.9 2.6 0.00 1.02 0.13 75 1010.9
20260506110505 43 302 0.9 2.6 0.00 1.02 0.13 74 1010.9
20260506110229 43 302 0.9 1.7 0.00 1.02 0.13 74 1010.7
20260506105453 43 302 0.9 1.7 0.00 1.02 0.13 74 1010.8
20260506104951 43 302 0.0 1.7 0.00 1.02 0.13 74 1010.8
20260506104451 43 302 0.0 1.7 0.00 1.02 0.13 74 1010.7
20260506103950 43 302 0.0 1.7 0.00 1.02 0.13 74 1010.8
20260506103455 43 302 0.0 1.7 0.00 1.02 0.13 74 1010.8
20260506103451 43 302 0.0 1.7 0.00 1.02 0.13 74 1010.9
20260506102447 43 303 0.9 2.6 0.00 1.02 0.13 74 1010.6
20260506101945 43 303 0.9 2.6 0.00 1.02 0.13 74 1010.6
20260506101443 44 302 0.9 2.6 0.00 1.02 0.13 74 1010.4
20260506101218 43 302 0.9 4.3 0.00 1.02 0.13 74 1010.3
20260506100943 43 302 0.9 2.6 0.00 1.02 0.13 74 1010.3
20260506095941 43 302 1.7 4.3 0.00 1.02 0.13 74 1010.6
20260506095440 44 337 0.9 2.6 0.00 1.02 0.13 74 1010.4
20260506094938 43 0 0.9 2.6 0.00 1.02 0.13 74 1010.1
20260506094439 43 0 0.9 2.6 0.00 1.02 0.13 74 1009.8
20260506093938 43 5 0.9 1.7 0.00 1.02 0.13 74 1010.0
20260506093436 44 5 0.9 2.6 0.00 1.02 0.13 74 1009.9
20260506092937 44 5 0.9 2.6 0.00 1.02 0.13 74 1010.0
20260506092437 44 5 0.9 2.6 0.00 1.02 0.13 74 1010.1
20260506091936 44 9 0.0 2.6 0.00 1.02 0.13 74 1009.9
20260506091437 44 9 0.0 2.6 0.01 1.02 0.13 74 1010.1
20260506090936 44 9 0.9 2.6 0.01 1.02 0.13 74 1009.9
20260506090435 44 9 0.9 2.6 0.01 1.02 0.13 74 1010.1
20260506085935 44 9 0.9 1.7 0.01 1.02 0.13 74 1010.2
20260506085435 44 9 0.9 2.6 0.01 1.02 0.13 75 1010.4
20260506084934 44 10 0.9 2.6 0.01 1.02 0.13 74 1010.5
20260506084433 43 11 0.9 2.6 0.01 1.02 0.13 74 1010.1
20260506083933 43 13 0.0 0.0 0.01 1.02 0.13 74 1009.7
20260506083431 43 13 0.0 0.0 0.01 1.02 0.13 74 1009.6
20260506082931 43 13 0.0 0.0 0.01 1.02 0.13 74 1009.7
20260506082430 43 13 0.0 0.0 0.01 1.02 0.13 74 1010.0
20260506082159 43 13 0.0 0.0 0.01 1.02 0.13 74 1010.0
20260506081422 43 13 0.0 0.0 0.00 1.01 0.12 74 1009.9
20260506080921 43 13 0.0 0.0 0.00 1.01 0.12 74 1010.0
20260506080421 43 13 0.0 0.9 0.01 1.01 0.12 74 1010.1
20260506080153 43 13 0.0 1.7 0.01 1.01 0.12 74 1010.2
20260506073418 44 17 0.0 0.0 0.03 1.01 0.12 74 1010.0
20260506072918 44 339 0.0 0.0 0.03 1.01 0.12 74 1009.7
20260506072646 44 339 0.0 0.0 0.03 1.01 0.12 74 1009.5
20260506071914 44 338 0.0 0.0 0.04 1.01 0.12 74 1009.4
20260506071421 44 338 0.0 0.0 0.04 1.01 0.12 74 1009.7
20260506071414 44 338 0.0 0.0 0.04 1.01 0.12 74 1009.6
20260506070414 44 338 0.0 0.0 0.03 1.00 0.11 74 1009.8
20260506062411 44 338 0.9 1.7 0.04 0.98 0.09 74 1010.4
20260506061910 44 338 0.0 1.7 0.03 0.97 0.08 74 1010.5
20260506061410 44 338 0.0 1.7 0.04 0.97 0.08 74 1010.3
20260506060910 44 338 0.9 1.7 0.04 0.97 0.08 74 1010.2
20260506060410 44 338 0.9 1.7 0.05 0.97 0.08 74 1010.1
20260506051358 45 317 0.0 0.0 0.03 0.93 0.05 74 1009.7
20260506050857 45 317 0.0 0.0 0.03 0.93 0.04 74 1009.6
20260506050357 45 317 0.0 0.0 0.03 0.92 0.03 74 1010.2
20260506045124 45 317 0.0 0.0 0.03 0.91 0.02 74 1010.4
20260506044352 45 316 0.0 0.0 0.03 0.91 0.02 74 1010.3
20260506043855 45 316 0.0 0.0 0.04 0.91 0.02 74 1010.3
20260506043354 45 316 0.0 0.0 0.03 0.90 0.01 74 1010.3
20260506042848 45 316 0.0 0.0 0.03 0.90 0.01 74 1010.2
20260506042342 45 316 0.0 0.0 0.04 0.90 0.01 74 1010.0
20260506041836 45 316 0.0 0.9 0.04 0.90 0.01 74 1009.9
20260506041328 45 315 0.0 0.9 0.04 0.90 0.01 74 1009.8
20260506040825 45 315 0.0 1.7 0.03 0.89 0.00 74 1009.9
20260506040318 45 315 0.9 2.6 0.03 0.89 0.00 74 1009.9
20260506035812 45 315 0.0 1.7 0.04 0.89 0.89 74 1010.0
20260506035306 45 315 0.0 0.9 0.04 0.88 0.88 74 1010.0
20260506034800 45 313 0.0 0.9 0.04 0.88 0.88 74 1010.1
20260506034254 45 313 0.9 3.5 0.05 0.88 0.88 74 1010.1
20260506033747 45 313 1.7 3.5 0.05 0.87 0.87 74 1010.3
20260506033510 45 306 0.9 3.5 0.05 0.87 0.87 74 1010.4
20260506032734 45 34 0.9 2.6 0.06 0.87 0.87 74 1010.3
20260506032228 45 36 0.9 2.6 0.06 0.86 0.86 74 1010.3
20260506031953 45 40 0.9 2.6 0.06 0.86 0.86 74 1010.3
20260506031217 45 53 0.9 1.7 0.07 0.86 0.86 74 1010.2
20260506030710 45 54 0.0 0.9 0.08 0.86 0.86 74 1010.3
20260506030204 45 54 0.0 0.9 0.07 0.85 0.85 74 1010.1
20260506025658 45 54 0.0 0.0 0.08 0.85 0.85 74 1010.1
20260506025149 46 54 0.0 0.0 0.08 0.84 0.84 74 1010.2
20260506024643 46 54 0.0 0.9 0.08 0.84 0.84 74 1010.2
20260506024137 46 54 0.9 6.1 0.08 0.83 0.83 74 1010.2
20260506023630 46 54 1.7 8.7 0.08 0.82 0.82 74 1010.3
20260506023124 47 88 1.7 8.7 0.09 0.82 0.82 74 1010.1
20260506022618 47 346 0.0 2.6 0.08 0.81 0.81 74 1010.1
20260506022112 47 346 0.0 0.9 0.08 0.80 0.80 74 1010.1
20260506021605 47 346 0.0 0.9 0.08 0.80 0.80 74 1010.3
20260506021100 47 346 0.0 0.0 0.08 0.79 0.79 74 1010.3
20260506020554 47 346 0.0 0.0 0.07 0.78 0.78 74 1010.3
20260506020048 47 346 0.0 0.9 0.07 0.77 0.77 74 1010.3
20260506015542 47 346 0.0 1.7 0.07 0.77 0.77 74 1010.2
20260506015036 47 346 0.0 1.7 0.07 0.76 0.76 74 1010.0
20260506014530 47 339 0.0 0.9 0.06 0.75 0.75 74 1010.0
20260506014024 47 339 0.0 1.7 0.06 0.74 0.75 74 1009.9
20260506013518 47 339 0.0 2.6 0.06 0.74 0.74 74 1009.7
20260506013011 47 338 0.0 2.6 0.06 0.73 0.73 74 1009.8
20260506012505 47 338 0.9 2.6 0.06 0.73 0.73 74 1010.1
20260506012000 47 338 0.9 3.5 0.06 0.72 0.72 74 1010.1
20260506011454 47 338 0.9 3.5 0.06 0.72 0.72 74 1009.9
20260506011218 47 342 0.9 2.6 0.06 0.71 0.71 74 1009.9
20260506010441 47 342 0.9 2.6 0.07 0.71 0.71 74 1009.7
20260506005936 47 342 0.9 4.3 0.06 0.70 0.70 74 1009.6
20260506005430 47 342 0.9 4.3 0.05 0.69 0.70 74 1009.7
20260506004924 47 339 0.0 3.5 0.05 0.69 0.69 74 1009.8
20260506004418 47 321 0.0 1.7 0.05 0.69 0.69 74 1009.8
20260506003912 47 321 0.9 2.6 0.05 0.68 0.68 74 1009.5
20260506003406 47 321 0.9 2.6 0.05 0.68 0.68 74 1009.5
20260506003131 47 321 1.7 2.6 0.04 0.67 0.67 74 1009.5
20260506002354 47 321 1.7 3.5 0.03 0.66 0.66 74 1009.4
20260506001848 47 322 0.9 3.5 0.04 0.66 0.66 74 1009.4
20260506001342 47 319 0.0 1.7 0.04 0.66 0.66 74 1009.4
20260506000835 47 319 0.0 3.5 0.03 0.65 0.65 74 1009.4
20260506000330 47 319 0.9 3.5 0.03 0.64 0.64 74 1009.4
20260505235823 47 331 0.9 3.5 0.04 0.64 0.64 74 1009.4
20260505235318 47 333 0.9 2.6 0.04 0.64 0.64 74 1009.3
20260505234812 47 335 0.9 3.5 0.05 0.64 0.64 74 1009.4
20260505234306 47 335 0.9 3.5 0.06 0.64 0.64 74 1009.3
20260505233800 47 336 1.7 7.0 0.05 0.63 0.63 74 1009.2
20260505233254 47 336 2.6 7.0 0.06 0.63 0.63 74 1009.4